GFSWCAN_con_sbcape_024.txt.gz
CAPE
28 16 8 0 6 0 0 2 0 0 0 15 1 2 5 3 0 0 0 0 0 0 0 0 0 0 0 0 0 2 19 4 0 0 0 0 0 1 7 117 105 75 17 0 19 0 0 0 300 1121 2351 2475 2243 2066
41 17 8 0 1 0 4 9 0 0 0 7 10 5 3 4 0 0 0 0 0 0 0 0 0 0 0 0 0 0 3 2 25 0 0 0 0 0 388 39 91 62 287 153 112 50 1821 1807 2315 2413 2349 2377 2325 2316
47 32 3 0 0 5 0 0 0 1 1 0 2 4 2 2 1 0 0 0 0 0 0 0 0 0 0 0 0 0 2 6 71 27 10 39 2 5 92 61 127 92 252 328 332 612 1315 1646 1638 1606 1966 2098 1997 1910
48 36 6 3 5 11 0 0 0 5 2 1 0 2 3 2 2 0 0 0 0 0 0 2 0 0 0 0 0 0 0 0 0 0 0 0 55 101 99 109 88 239 360 340 316 990 950 757 1153 1201 1515 1903 2145 2195
50 44 17 7 8 14 9 0 2 1 1 0 0 0 1 1 1 0 0 0 0 0 1 4 0 0 0 0 0 0 0 0 0 0 0 0 0 0 0 2 9 336 297 645 899 686 1079 1030 1109 998 1164 1198 1484 1700
42 23 15 13 10 16 11 1 1 0 1 0 0 0 0 0 0 0 14 5 0 0 0 20 22 0 0 0 0 0 0 0 0 0 1 3 1 22 11 8 38 92 192 256 191 98 90 835 561 695 682 1000 1341 1332
17 15 14 26 12 15 8 2 0 0 0 0 0 0 0 0 1 1 1 0 0 0 0 5 34 0 0 0 0 0 0 0 0 0 0 0 22 14 1 15 145 97 93 38 12 17 196 384 295 276 342 601 815 895
19 20 17 29 20 17 14 1 0 0 0 0 0 0 0 0 0 3 0 0 0 0 0 32 109 44 0 2 13 1 17 1 0 0 0 4 2 19 7 10 0 20 31 37 3 0 25 34 166 122 131 260 916 925
15 26 21 23 28 22 13 4 0 0 0 0 0 0 0 0 12 10 0 0 0 0 9 0 119 146 14 39 103 70 30 35 9 8 0 3 26 26 26 79 0 2 32 25 2 0 2 5 34 121 105 191 375 735
20 29 33 24 21 18 17 4 0 0 0 0 0 6 40 17 0 0 1 16 5 0 0 0 61 231 178 127 182 146 176 61 47 56 41 45 23 61 39 37 49 77 49 29 22 11 25 64 153 199 68 92 72 124
16 32 36 17 17 16 16 1 0 0 0 1 25 61 42 0 4 24 9 8 14 9 0 0 45 154 148 103 344 250 306 259 154 93 67 113 67 160 100 139 63 9 11 0 7 12 21 20 40 88 126 79 34 248
19 24 44 25 28 23 8 0 0 0 14 5 0 1 25 27 26 27 13 22 25 15 60 25 105 72 163 217 404 376 254 165 198 240 216 91 328 379 205 123 76 67 39 41 49 51 49 52 45 51 67 59 72 40
52 43 50 47 37 18 1 0 0 0 0 19 32 55 20 38 4 4 3 44 32 38 125 184 251 186 219 161 289 317 197 265 134 154 79 451 404 242 173 110 42 12 0 3 31 40 86 67 67 101 89 113 160 292
49 58 56 49 42 15 0 0 0 0 0 61 46 4 26 12 17 51 47 105 155 222 215 89 150 111 340 320 333 206 174 154 197 63 111 429 213 67 70 74 29 11 6 1 5 30 83 69 120 148 154 146 166 269
58 66 60 44 25 6 0 0 0 0 7 60 26 0 0 48 73 34 27 35 36 21 50 98 56 41 111 152 163 187 142 142 125 214 239 154 76 25 30 40 28 27 13 16 6 0 28 121 270 323 456 390 416 401
78 76 30 31 13 0 0 0 0 0 44 21 22 22 60 46 28 33 31 105 61 29 27 25 46 71 71 34 35 66 78 112 192 220 4 10 31 47 44 18 14 23 26 18 15 14 37 200 427 624 623 536 746 264
26 7 22 6 0 0 0 0 2 22 43 9 18 24 57 47 56 20 66 110 166 40 61 32 50 46 67 40 38 76 163 52 11 14 9 36 14 3 4 18 26 19 21 22 24 8 132 293 552 861 631 321 715 604
64 3 0 0 0 0 0 0 40 36 17 20 43 41 34 40 238 223 61 27 15 28 14 22 28 62 57 46 42 87 16 5 15 47 24 4 0 1 18 20 25 13 10 27 23 87 387 723 658 268 205 109 28 35
17 2 0 0 0 24 11 31 39 42 21 35 31 27 46 123 132 109 21 20 19 16 15 17 13 24 23 46 58 37 17 18 17 12 17 10 12 6 11 9 18 38 28 29 89 326 354 367 391 321 190 74 42 19
0 0 0 0 0 49 46 43 36 75 44 79 63 45 11 84 42 27 19 21 17 19 5 19 27 68 98 34 12 17 6 14 16 5 1 15 20 16 15 11 10 3 5 48 15 13 38 25 6 6 14 10 10 8
0 0 0 0 24 51 43 23 17 41 39 46 68 49 35 36 37 35 15 6 5 10 10 28 44 42 68 56 7 1 7 6 30 25 8 16 22 7 3 2 5 1 3 6 3 2 2 19 46 44 11 11 6 2
12 0 48 12 50 22 37 38 58 53 36 41 38 42 43 46 45 24 3 7 21 36 38 20 16 2 1 15 4 4 5 25 17 11 6 9 11 5 4 2 0 8 17 16 8 4 3 3 3 9 11 11 14 5
0 13 58 27 14 6 3 24 31 30 46 35 23 19 17 21 9 1 11 11 7 0 0 1 1 2 2 0 4 23 21 12 8 19 47 14 6 12 2 72 32 4 7 4 1 1 0 0 0 0 0 0 0 0
0 25 19 20 2 1 32 24 28 43 8 3 22 26 10 18 6 6 4 3 0 0 2 1 2 6 23 25 37 28 18 5 0 0 13 17 10 1 35 70 52 38 2 0 0 0 0 0 0 0 4 32 44 29
20 1 1 0 24 26 19 10 4 4 4 17 13 17 14 6 7 3 0 0 1 2 31 38 35 32 31 35 20 17 21 13 4 43 78 9 2 16 51 28 3 12 3 3 29 47 52 47 72 38 7 5 8 9
7 4 31 27 33 26 18 18 15 5 8 15 11 12 13 12 5 2 1 1 2 2 42 34 28 35 32 13 7 17 7 12 38 43 21 32 44 67 58 36 49 64 56 66 71 22 23 7 0 0 0 0 0 13
28 21 29 25 15 9 5 3 4 5 10 10 12 11 12 6 2 1 2 3 3 37 42 25 15 10 21 65 82 133 75 45 54 9 38 48 25 28 7 8 16 61 70 48 32 4 0 0 1 4 14 21 19 19
2 3 8 5 3 3 3 8 8 18 17 22 9 17 8 5 3 0 2 1 14 18 50 28 12 66 43 4 12 33 26 21 23 4 0 0 0 0 0 0 0 0 0 0 2 6 9 14 16 18 16 15 12 5
3 1 4 3 2 4 11 32 12 13 12 18 13 8 2 0 0 1 1 1 7 14 31 38 58 50 42 49 50 34 34 16 0 3 4 4 3 0 0 0 0 0 0 0 0 0 0 0 0 11 10 9 10 11
3 2 3 27 34 37 30 20 13 12 10 2 0 0 1 6 9 1 4 9 35 40 25 30 40 53 34 23 14 4 10 13 13 10 23 18 18 15 15 15 15 12 8 2 0 0 0 0 0 4 5 13 16 9
33 5 29 36 36 37 37 28 1 6 0 0 0 0 0 1 16 31 46 67 56 51 43 25 9 0 0 1 6 8 5 2 2 4 21 26 25 21 10 1 5 11 13 15 18 25 9 9 23 11 11 5 0 0
35 32 36 16 19 15 7 7 7 8 8 5 1 0 7 9 5 6 8 9 6 2 0 2 11 10 2 1 0 0 1 8 14 1 1 14 26 26 26 31 24 12 12 13 11 17 11 0 8 6 4 0 1 0
42 32 27 33 35 11 5 9 6 5 1 2 2 1 7 2 0 0 0 7 4 0 0 2 2 2 1 3 0 0 0 0 0 0 0 0 0 0 0 0 0 0 0 2 3 3 0 0 0 0 0 0 0 0

GFSWCAN_con_sbcape_027.txt.gz
CAPE
48 40 31 10 0 0 0 0 5 0 0 0 4 5 2 1 1 0 0 0 0 0 0 0 0 0 0 0 0 0 0 0 0 0 0 0 0 0 0 0 124 0 0 0 0 0 0 1412 1148 1344 172 238 1260 389
45 49 44 21 0 0 0 0 1 0 1 1 0 0 3 2 0 0 0 0 0 0 0 0 0 0 0 0 0 0 0 1 47 26 0 0 0 0 0 0 81 41 1 0 0 0 2115 1903 2032 1807 1680 1693 1794 1243
49 55 54 31 0 0 0 0 0 0 3 2 1 0 1 2 2 1 0 0 0 0 0 0 0 0 0 0 0 0 0 0 0 0 0 13 49 5 8 147 102 141 313 119 208 603 532 525 364 445 1546 1593 1361 1749
47 52 56 40 2 0 0 0 0 0 3 2 0 0 0 0 0 1 0 0 0 0 0 0 0 0 0 0 0 0 0 0 0 0 0 0 0 0 0 20 16 70 234 400 660 418 607 63 0 49 575 1509 1524 1169
50 55 55 43 11 3 0 0 0 1 0 2 0 0 0 0 0 0 0 0 0 0 0 0 0 0 0 0 0 0 0 0 0 0 0 0 0 0 0 0 19 0 199 203 239 170 606 494 71 276 745 1535 1491 1350
42 50 57 35 8 6 4 9 0 1 0 1 0 0 0 0 0 0 0 0 0 0 0 0 0 0 0 0 0 0 0 0 0 0 0 0 0 0 0 0 121 13 119 214 54 96 202 208 231 116 660 1221 1320 996
17 47 32 11 10 7 1 2 1 0 0 0 0 0 0 0 0 0 0 0 0 0 0 0 26 0 0 0 0 0 0 0 0 0 0 0 0 0 0 0 50 45 11 0 1 3 152 245 121 252 0 1109 732 547
19 36 27 14 20 9 1 0 0 0 0 0 0 0 0 0 0 0 0 0 0 0 0 1 86 14 0 0 0 0 0 0 0 0 0 0 0 0 0 0 0 15 1 9 4 1 0 0 177 168 65 0 536 448
8 27 23 21 28 11 0 0 1 0 0 0 0 0 0 0 0 2 0 0 0 0 0 8 59 150 82 7 73 25 10 5 0 0 0 0 0 0 2 0 0 0 0 0 0 0 0 1 4 14 136 315 392 575
15 18 21 23 27 19 0 0 2 0 0 0 0 0 8 13 0 0 0 1 0 0 0 0 16 89 3 130 164 236 125 36 40 7 1 0 0 0 8 48 71 20 0 0 0 0 0 0 0 7 10 0 40 29
43 20 29 20 21 14 0 1 1 0 0 0 3 47 80 0 0 8 22 24 10 2 0 0 0 183 65 132 224 279 222 229 110 122 64 93 99 181 174 133 92 46 0 5 17 6 0 0 0 20 6 0 4 147
61 26 30 23 15 15 5 8 0 0 0 0 0 0 1 4 31 16 20 22 5 9 173 50 25 186 201 513 384 260 168 168 128 197 278 122 272 405 165 120 86 41 26 42 20 0 0 0 0 4 23 9 22 130
53 44 34 24 17 21 20 5 0 0 0 0 0 18 9 28 3 0 0 41 113 185 477 405 417 374 417 433 380 239 83 151 182 313 165 290 260 284 190 106 27 2 0 2 0 0 0 0 0 0 6 72 29 179
72 27 26 31 34 31 22 0 0 0 0 10 45 0 4 1 0 12 53 202 211 264 257 208 390 346 419 420 296 138 249 316 174 163 208 377 152 76 44 16 15 0 0 0 0 0 0 0 0 0 25 147 236 84
80 50 31 57 57 36 12 0 0 0 0 17 67 0 0 7 28 148 188 71 197 235 133 218 279 328 330 221 193 212 177 112 258 232 276 334 232 126 70 52 7 2 0 0 3 0 0 0 0 13 148 237 42 153
33 48 44 45 42 27 0 0 0 0 11 37 25 8 96 92 54 55 90 132 156 164 156 171 67 168 79 104 83 108 71 103 5 2 23 98 60 10 0 0 0 0 0 0 0 0 0 0 0 2 115 132 259 82
32 7 29 29 22 0 0 0 0 1 16 5 35 63 33 56 130 146 321 21 133 169 161 119 78 46 208 68 25 171 163 8 5 12 32 42 0 0 0 0 1 7 7 8 6 13 12 7 3 94 327 70 9 12
57 30 14 6 0 0 0 0 13 2 0 7 27 67 116 123 386 480 50 158 193 94 64 51 44 44 73 41 54 62 8 32 18 0 0 0 0 9 8 5 4 1 9 7 12 13 14 50 215 237 300 202 72 0
5 0 0 0 0 0 23 19 51 52 17 67 126 106 152 267 130 76 117 135 103 64 30 42 4 2 55 145 54 4 0 1 0 0 0 0 0 11 4 0 0 9 32 30 21 35 7 99 114 92 69 28 1 1
0 0 0 0 0 19 48 74 195 120 128 186 92 131 154 190 59 21 52 59 12 8 13 5 26 135 112 8 2 0 0 0 4 3 0 0 0 1 5 3 1 1 9 1 1 3 1 1 1 4 2 1 3 6
0 0 0 0 0 0 108 109 8 91 128 135 104 113 65 81 54 58 33 1 0 14 0 19 81 45 33 45 3 0 3 10 8 4 3 3 0 1 1 1 0 1 1 1 1 1 6 5 6 1 1 2 3 3
0 0 0 0 7 86 52 140 135 143 88 59 72 65 76 71 19 0 0 0 0 27 32 6 0 0 0 2 2 6 7 1 0 0 2 2 3 2 1 1 8 4 4 2 1 1 1 2 1 3 3 5 3 1
0 6 50 43 2 0 0 45 33 36 51 60 56 12 29 14 1 0 2 12 7 0 0 0 0 1 4 0 0 2 0 0 2 14 4 2 21 3 7 2 0 2 2 1 0 0 0 0 0 0 0 0 0 0
0 25 18 21 0 0 19 18 29 25 1 5 12 15 15 8 2 3 3 1 0 0 0 0 1 1 2 1 2 0 1 0 0 1 5 33 16 37 11 0 0 0 0 0 0 0 0 0 0 0 0 0 0 0
0 0 0 0 19 27 19 10 1 0 0 27 20 23 11 4 2 1 0 0 0 0 0 13 11 15 11 7 3 1 0 0 0 0 1 1 11 10 6 1 0 0 0 0 0 0 0 0 5 18 24 29 0 0
0 1 1 29 38 39 14 2 10 7 6 19 13 14 5 6 3 0 0 0 0 1 14 12 16 23 7 1 1 3 0 2 36 51 54 42 26 21 12 10 7 24 29 47 72 81 68 42 17 3 1 0 7 15
0 20 46 35 28 17 14 3 1 3 4 4 9 7 7 5 1 0 0 0 1 29 29 12 7 0 0 0 44 70 54 46 57 89 103 72 54 41 48 20 83 54 48 51 27 0 0 0 0 1 5 29 24 12
1 2 10 4 3 2 2 13 6 8 6 15 7 9 5 2 2 0 1 0 6 14 14 6 8 32 63 56 79 93 90 77 89 10 0 0 0 0 0 0 0 0 0 0 0 5 16 27 23 26 22 6 0 0
0 2 2 1 1 2 1 9 16 19 5 2 8 2 0 0 0 1 1 0 0 7 6 17 35 44 57 84 62 43 52 43 0 1 0 0 0 0 0 0 0 0 0 0 0 0 0 0 0 3 7 0 0 0
4 3 6 11 12 13 19 33 33 24 8 1 0 0 1 0 0 0 1 0 1 9 16 26 44 65 53 70 88 84 42 19 19 4 14 13 5 0 3 4 3 1 0 0 0 0 0 0 0 2 1 8 3 9
3 0 1 38 30 19 4 1 1 0 1 7 9 0 0 1 1 5 10 20 30 75 70 44 56 19 30 16 23 1 0 3 13 16 22 17 8 16 14 16 19 23 23 24 17 6 1 2 11 6 28 11 0 0
23 42 58 24 28 15 4 23 15 13 5 9 6 7 9 19 25 40 10 13 24 57 54 11 17 2 0 0 2 0 0 0 0 0 0 0 0 0 3 18 11 10 10 13 11 30 14 5 7 4 4 0 0 0
46 39 34 24 16 8 13 1 3 0 1 0 0 6 0 0 0 0 8 30 38 2 12 26 4 9 2 0 0 0 0 0 0 0 0 0 0 0 0 0 0 0 0 1 7 7 1 0 0 0 0 0 0 0

GFSWCAN_con_sbcape_030.txt.gz
CAPE
38 49 48 37 14 7 0 0 0 2 0 2 3 1 2 3 2 0 0 0 0 0 0 0 0 0 0 0 0 0 0 0 0 0 0 0 0 0 0 0 0 0 0 0 0 0 0 1004 1230 378 122 281 0 18
37 41 47 43 32 3 0 0 0 0 0 4 2 2 1 1 1 0 0 0 0 0 0 0 0 0 0 0 0 0 0 0 0 6 0 0 0 0 0 0 0 0 0 0 0 0 382 366 559 293 188 581 378 57
38 49 49 48 38 0 0 0 0 0 0 3 1 1 0 1 0 0 0 0 0 0 0 0 0 0 0 0 0 0 0 0 0 0 0 0 12 0 0 0 0 0 0 56 217 288 0 0 304 621 912 1146 1051 323
42 45 42 45 40 2 2 3 0 0 0 1 1 1 0 0 0 0 0 0 0 0 0 0 0 0 0 0 0 0 0 0 0 0 0 0 0 0 0 0 0 0 1 56 148 99 86 7 11 213 1130 1292 1186 853
48 45 48 50 41 20 7 0 0 0 1 1 1 0 0 0 0 0 0 0 0 0 0 0 0 0 0 0 0 0 0 0 0 0 0 0 0 0 0 0 0 0 57 26 109 15 190 211 0 47 306 1339 1095 888
34 36 48 49 38 23 3 4 0 0 0 0 0 0 0 0 0 0 0 0 0 0 0 0 0 0 0 0 0 0 0 0 0 0 0 0 0 0 0 0 8 0 3 2 14 9 4 105 345 137 308 1047 774 440
17 6 42 44 33 16 8 0 0 0 0 0 0 0 0 0 0 0 0 0 0 0 0 0 0 0 0 0 0 0 0 0 0 0 0 0 0 0 0 0 1 0 0 0 0 0 0 8 10 26 852 771 579 332
9 0 36 35 24 23 12 0 0 2 0 0 0 0 0 0 0 0 0 0 0 0 0 0 0 0 0 0 0 0 0 0 0 0 0 0 0 0 0 0 0 0 0 0 0 0 0 0 0 0 202 464 451 327
8 10 34 24 21 26 19 7 0 2 2 0 0 0 0 0 0 0 0 0 0 0 0 0 0 0 0 0 0 0 0 0 0 0 0 0 0 0 0 0 0 0 0 0 0 0 0 0 0 0 1 125 275 353
27 19 24 15 16 19 20 5 2 3 0 0 0 0 0 0 0 0 0 0 0 0 0 0 0 6 0 0 8 22 0 0 0 0 0 0 0 0 0 0 0 0 0 0 0 0 0 0 0 0 0 0 0 13
62 37 27 18 11 15 19 5 6 0 0 0 0 0 0 0 0 0 0 0 0 0 0 0 0 0 0 0 0 4 8 6 8 0 7 0 0 16 0 0 0 0 0 0 0 0 0 0 0 0 0 0 0 15
74 67 39 20 16 13 15 4 10 0 0 0 0 0 0 0 0 0 0 0 0 0 0 0 0 0 7 0 2 6 1 0 0 0 33 6 0 0 0 0 0 0 0 0 0 0 0 0 0 0 0 2 4 16
81 73 40 26 17 11 16 17 5 0 0 0 0 0 0 0 0 0 0 0 0 0 141 28 31 12 58 0 0 0 0 0 8 19 14 20 0 0 0 0 0 0 0 0 0 0 0 0 0 0 0 0 9 20
70 72 48 29 18 19 28 17 0 0 0 0 6 0 0 0 0 0 0 1 13 36 12 0 21 16 0 13 0 10 0 8 43 0 12 8 0 0 0 0 0 0 0 0 0 0 0 0 0 0 0 0 0 12
83 76 49 32 32 44 34 6 0 0 0 1 5 4 0 0 0 0 0 0 8 0 0 1 13 0 1 29 0 1 39 1 23 0 79 1 0 0 0 0 0 0 0 0 0 0 0 0 0 0 0 0 0 5
76 55 6 35 64 50 16 0 0 0 1 4 0 0 0 0 0 0 0 0 0 0 0 3 9 1 0 1 2 13 16 28 1 0 0 0 0 0 0 0 0 0 0 0 0 0 0 0 0 0 0 0 0 0
11 1 35 71 67 19 0 0 0 0 0 0 0 0 0 0 4 13 1 0 0 0 2 0 2 7 0 12 7 5 0 0 0 0 1 0 0 0 0 0 0 0 0 0 2 1 3 6 5 1 0 0 0 0
12 14 61 56 0 0 0 0 0 0 0 0 0 0 11 2 3 5 7 4 2 0 2 6 0 2 2 6 9 0 0 0 0 0 0 0 0 0 0 0 0 0 0 1 5 1 0 0 0 0 0 0 0 0
1 11 39 0 0 0 0 0 0 0 2 0 0 0 11 2 0 0 0 0 0 0 0 0 0 0 0 0 0 0 0 0 0 0 0 0 0 0 0 0 0 2 8 19 13 1 4 7 2 4 2 0 0 0
45 18 0 0 0 0 28 0 0 3 1 4 2 0 0 3 0 0 0 0 0 0 0 0 0 0 0 0 0 0 0 0 0 0 0 0 0 1 1 1 1 2 0 1 0 0 1 1 1 1 1 1 2 2
0 0 0 0 0 0 0 6 0 3 0 1 0 0 0 0 12 0 0 0 0 0 0 0 0 0 0 0 0 0 0 0 0 2 2 0 0 1 0 0 0 0 0 1 1 1 1 1 1 1 1 1 1 1
0 0 0 0 0 7 0 0 2 0 11 0 5 1 3 3 0 0 0 0 0 0 0 0 0 0 0 0 0 0 0 1 0 0 0 0 0 0 0 1 0 0 0 1 1 1 1 0 0 0 0 0 0 0
0 0 0 0 1 0 0 0 0 4 7 1 0 0 0 0 0 0 0 0 0 0 0 0 0 0 0 0 0 1 0 0 6 0 0 0 0 0 0 0 0 0 0 0 0 0 0 0 0 0 0 0 0 0
0 0 4 2 0 0 0 6 0 0 0 0 0 0 0 0 0 0 0 0 0 0 0 0 0 0 0 0 0 0 0 0 0 0 0 0 1 1 0 0 0 0 0 0 0 0 0 0 0 0 0 0 0 0
0 0 0 0 0 2 6 0 0 0 0 0 0 0 1 0 0 0 0 0 0 0 0 0 0 0 0 0 0 0 0 0 0 0 0 0 0 0 0 0 0 0 0 0 0 0 0 0 0 2 8 6 5 3
0 0 0 14 9 14 2 0 0 3 2 14 6 0 0 0 1 0 0 0 0 0 1 3 6 3 0 0 0 0 0 0 0 1 2 2 0 0 0 0 0 0 0 3 9 8 2 0 0 5 9 13 2 0
0 8 14 0 4 2 0 0 0 0 2 5 2 4 0 0 0 0 0 0 0 4 11 3 1 0 0 0 0 0 0 1 9 3 3 0 0 4 23 27 38 25 18 24 26 0 1 2 0 3 1 4 7 0
0 0 1 0 0 0 0 3 0 2 2 9 7 2 9 0 0 0 0 0 1 0 0 0 2 0 0 0 1 10 7 6 8 2 0 0 0 0 0 0 0 0 0 0 0 0 7 10 9 7 1 0 0 0
0 0 0 0 0 2 1 0 6 0 0 0 5 0 0 0 0 0 0 0 0 0 0 0 0 2 3 0 3 13 6 3 0 0 0 0 0 0 0 0 0 0 0 0 0 0 0 0 0 0 0 0 0 0
0 0 3 14 10 5 3 1 14 6 1 0 0 0 1 0 0 0 0 0 0 0 0 3 13 16 24 36 50 30 0 0 0 0 0 0 0 0 0 0 0 0 0 0 0 0 0 0 0 0 0 0 0 0
0 0 2 15 14 16 14 5 0 0 1 1 0 0 0 0 0 0 0 0 0 0 0 0 6 4 3 2 5 0 0 0 0 0 0 0 0 0 0 0 0 0 0 0 0 1 0 0 2 2 1 0 0 0
14 10 21 13 18 16 17 3 7 1 4 3 0 0 0 1 4 0 0 0 0 0 1 4 11 0 0 0 0 0 0 0 0 0 0 0 0 0 0 0 0 0 0 0 0 1 1 0 0 0 0 0 0 0
29 15 1 0 9 16 0 0 0 1 1 0 0 0 0 0 1 0 0 0 0 0 0 0 0 0 0 0 0 0 0 0 0 0 0 0 0 0 0 0 0 0 0 0 0 0 0 0 0 0 0 0 0 0

GFSWCAN_con_sbcape_033.txt.gz
CAPE
24 28 32 15 7 13 0 0 0 0 0 1 4 5 2 1 1 0 0 0 0 0 0 0 0 0 0 0 0 0 0 0 0 0 0 0 0 0 0 0 0 0 0 0 0 0 0 808 1468 159 0 387 88 80
30 34 32 28 13 19 0 0 0 0 0 0 2 3 2 1 1 0 0 0 0 0 0 0 0 0 0 0 0 0 0 0 0 0 0 0 0 0 0 0 0 0 0 0 0 0 299 250 778 752 43 590 203 61
24 31 24 27 21 22 0 0 0 0 0 0 1 2 1 0 1 0 0 0 0 0 0 0 0 0 0 0 0 0 0 0 0 0 0 0 0 0 0 0 0 0 0 25 246 117 72 8 497 1084 1238 1401 1359 349
26 22 26 27 25 27 3 0 0 0 0 1 1 1 0 0 0 0 0 0 0 0 0 0 0 0 0 0 0 0 0 0 0 0 0 0 0 0 0 0 0 0 0 39 106 114 23 1 30 203 739 436 1142 780
44 38 32 31 29 31 7 0 0 0 0 0 0 0 0 0 0 0 0 0 0 0 0 0 0 0 0 0 0 0 0 0 0 0 0 0 0 0 0 0 3 0 3 3 61 3 34 36 4 185 888 1296 1025 785
41 34 27 32 36 31 9 2 0 0 0 0 0 0 0 0 0 0 0 0 0 0 0 0 0 0 0 0 0 0 0 0 0 0 0 0 0 0 0 0 0 0 0 0 13 0 29 224 245 111 914 1155 941 732
40 28 19 28 35 31 14 8 0 0 0 0 0 0 0 0 0 0 0 0 0 0 0 0 0 0 0 0 0 0 0 0 0 0 0 0 0 0 0 0 31 2 0 0 0 1 38 10 47 488 887 881 529 340
7 10 0 6 36 28 9 8 0 0 0 0 0 0 0 0 0 0 0 0 0 0 0 0 0 0 0 0 0 0 0 0 0 0 0 0 0 0 0 0 0 0 0 0 0 0 1 0 0 126 546 516 379 325
3 1 0 22 30 16 16 9 0 0 3 0 0 0 0 0 0 0 0 0 0 0 0 0 0 0 0 0 0 0 0 0 0 0 0 0 0 0 0 0 0 0 7 0 0 0 0 0 0 0 39 253 303 288
17 12 5 29 25 12 19 8 0 3 1 0 0 0 0 0 0 0 0 0 0 0 0 0 0 0 0 0 0 0 0 0 0 0 0 0 0 0 0 0 0 0 0 0 0 0 0 0 0 0 0 0 0 0
46 25 17 22 12 3 7 8 6 0 0 0 0 0 0 0 0 0 0 0 0 0 0 0 0 0 0 0 0 0 0 0 0 0 0 0 0 0 0 0 0 0 0 0 0 0 0 0 0 0 0 0 0 0
69 53 42 32 23 4 12 18 4 0 0 0 0 0 0 0 0 0 0 0 0 0 0 0 0 0 0 0 0 0 0 0 0 0 0 0 0 0 0 0 0 0 0 0 0 0 0 0 0 0 0 0 0 0
83 72 59 42 25 10 17 14 3 0 0 0 0 0 0 0 0 0 0 0 0 0 0 0 64 0 0 0 0 0 0 0 0 0 1 0 0 0 0 0 0 0 0 0 0 0 0 0 0 0 0 0 0 0
79 74 73 51 37 27 22 14 12 0 0 0 3 0 0 0 0 0 0 0 0 0 0 0 0 5 0 1 0 4 0 1 10 0 0 3 0 0 0 0 0 0 0 0 0 0 0 0 0 0 0 0 0 0
66 67 72 54 49 33 34 21 0 0 0 0 8 0 0 0 0 0 0 0 0 0 0 0 4 0 0 3 0 0 16 2 3 2 23 1 0 0 0 0 0 0 0 0 0 0 0 0 0 0 0 0 0 0
72 72 52 47 48 56 26 0 0 0 0 0 0 0 0 0 0 0 0 0 0 0 0 0 2 0 1 0 2 8 2 11 0 0 0 0 0 0 0 0 0 0 0 0 0 0 0 0 0 0 0 0 0 0
67 8 53 51 63 27 0 0 0 0 0 0 0 0 0 0 0 0 0 0 0 0 0 0 0 0 0 0 0 0 0 0 0 0 0 0 0 0 0 0 0 0 0 0 0 0 2 1 6 1 0 0 0 0
4 32 62 61 0 0 0 0 0 0 0 0 0 0 0 0 0 0 0 0 0 0 0 0 0 0 0 1 2 0 0 0 0 0 0 0 0 0 0 0 0 0 0 0 1 0 0 0 0 0 0 0 0 0
12 16 59 4 0 0 0 0 0 0 0 0 0 0 0 0 0 0 0 0 0 0 0 0 0 0 0 0 0 0 0 0 0 0 0 0 0 0 0 0 0 1 2 11 10 0 5 3 3 1 0 0 0 0
49 65 21 3 0 0 13 0 0 0 0 0 0 0 0 0 0 0 0 0 0 0 0 0 0 0 0 0 0 0 0 0 0 0 0 0 0 0 0 1 1 2 0 1 0 0 1 1 2 1 0 0 0 0
0 11 1 0 0 0 0 0 0 0 0 0 0 0 0 0 0 0 0 0 0 0 0 0 0 0 0 0 0 0 0 0 1 1 1 0 0 0 2 0 0 0 0 0 1 1 1 1 1 1 1 1 1 1
0 0 0 0 0 0 0 0 0 0 0 0 0 0 0 0 0 0 0 0 0 0 0 0 0 0 0 0 0 0 0 0 0 0 1 0 0 0 0 1 0 0 0 1 1 1 1 1 0 0 0 1 0 0
0 0 0 0 0 0 0 0 0 0 0 0 0 0 0 0 0 0 0 0 0 0 0 0 0 0 0 0 0 0 0 1 0 0 0 0 0 0 0 0 0 0 0 0 0 0 0 0 0 0 0 0 0 0
0 0 0 0 0 0 0 0 0 0 0 0 0 0 0 0 0 0 0 0 0 0 0 0 0 0 0 0 0 0 0 1 0 0 0 0 0 0 0 0 0 0 0 0 0 0 0 0 0 0 0 0 0 0
0 0 0 0 0 0 0 0 0 0 0 0 0 0 0 0 0 0 0 0 0 0 0 0 0 0 0 0 0 0 0 0 0 0 0 0 0 0 0 0 0 0 0 0 0 0 0 0 0 0 0 0 0 0
0 0 0 0 0 0 0 0 0 0 0 0 0 0 0 0 0 0 0 0 0 0 0 0 0 0 0 0 0 0 0 0 0 0 0 0 0 0 0 0 0 0 0 0 0 0 0 0 0 4 8 14 5 0
3 1 1 0 0 0 0 0 2 2 6 0 0 0 0 1 0 0 0 0 0 0 1 0 0 0 0 0 0 0 0 0 0 0 0 0 1 6 2 5 0 0 0 0 0 6 3 19 16 3 0 0 0 0
0 0 0 0 0 0 5 2 1 4 0 0 0 7 3 0 0 0 0 0 3 2 0 0 0 0 0 0 0 0 0 0 0 0 0 0 0 0 0 0 0 0 0 0 0 1 0 0 0 0 0 0 0 0
0 0 0 0 1 0 0 0 4 0 0 0 3 0 0 0 0 0 0 0 0 0 0 0 0 0 0 0 0 0 0 0 0 0 0 0 0 0 0 0 0 0 0 0 0 0 0 0 1 0 0 0 0 0
0 0 2 9 5 5 3 0 0 6 2 0 0 1 4 1 0 0 0 0 0 0 0 0 0 0 1 5 2 5 0 0 0 0 0 0 0 0 0 0 0 0 0 0 0 0 0 0 0 0 0 0 0 0
0 2 4 8 18 24 26 13 3 0 3 0 1 0 0 0 0 0 0 0 0 0 0 0 0 0 2 3 3 0 0 0 0 0 0 0 0 0 0 0 0 0 0 0 0 0 0 0 0 1 0 0 0 0
1 1 18 20 15 13 5 0 1 2 0 0 0 0 0 0 0 0 0 0 0 0 0 0 0 0 0 0 0 0 0 0 0 0 0 0 0 0 0 0 0 0 0 0 0 0 0 0 0 0 0 0 0 0
2 0 0 10 10 2 0 0 0 0 0 0 0 0 0 0 0 0 0 0 0 0 0 0 0 0 0 0 0 0 0 0 0 0 0 0 0 0 0 0 0 0 0 0 0 0 0 0 0 0 0 0 0 0

GFSWCAN_con_sbcape_036.txt.gz
CAPE
3 0 11 5 0 0 9 0 0 0 0 1 5 4 3 2 0 0 0 0 0 0 0 0 0 0 0 0 0 0 0 0 0 0 0 0 0 0 0 0 0 0 0 0 0 0 0 438 1060 30 0 274 297 223
1 6 10 17 0 0 10 0 0 0 0 0 3 3 2 2 1 0 0 0 0 0 0 0 0 0 0 0 0 0 0 0 0 0 0 0 0 0 0 0 0 0 0 0 0 0 99 140 479 644 138 406 107 33
0 8 1 0 0 5 13 0 0 0 0 0 2 2 2 1 1 0 0 0 0 0 0 0 0 0 0 0 0 0 0 0 0 0 0 0 0 0 0 0 0 0 0 112 192 150 187 90 114 898 1060 1124 1220 66
2 0 0 0 3 10 18 0 0 0 0 0 1 1 1 0 0 0 0 0 0 0 0 0 0 0 0 0 0 0 0 0 0 0 0 0 0 0 0 0 0 0 10 165 191 181 130 35 45 10 282 913 1032 590
0 0 0 1 21 20 16 9 0 0 0 0 1 0 0 0 0 0 0 0 0 0 0 0 0 0 0 0 0 0 0 0 0 0 0 0 0 0 0 0 10 0 0 3 60 11 17 32 40 171 860 1203 1005 890
9 12 18 20 27 26 19 15 0 0 0 0 0 0 0 0 0 0 0 0 0 0 0 0 0 0 0 0 0 0 0 0 0 0 0 0 0 0 0 0 0 0 0 0 17 0 0 144 85 170 1028 1066 866 592
25 36 29 21 21 26 32 20 0 0 0 0 0 0 0 0 0 0 0 0 0 0 0 0 0 0 0 0 0 0 0 0 0 0 0 0 0 0 0 0 9 8 0 2 14 16 36 17 114 615 909 779 512 368
34 33 27 9 13 38 32 9 0 0 0 0 0 0 0 0 0 0 0 0 0 0 0 0 0 0 0 0 0 0 0 0 0 0 0 0 0 0 0 0 0 0 0 0 2 0 0 0 2 441 403 354 235 216
39 10 4 0 25 38 23 0 0 0 0 0 0 0 0 0 0 0 0 0 0 0 0 0 0 0 0 0 0 0 0 0 0 0 0 0 0 0 0 0 0 0 0 0 0 0 0 0 0 12 82 81 86 51
21 7 12 0 31 35 12 4 0 0 0 0 0 0 0 0 0 0 0 0 0 0 0 0 0 0 0 0 0 0 0 0 0 0 0 0 0 0 0 0 0 0 0 0 0 0 0 0 0 0 0 0 0 0
49 33 28 4 42 20 4 5 0 0 0 0 0 0 0 0 0 0 0 0 0 0 0 0 0 0 0 0 0 0 0 0 0 0 0 0 0 0 0 0 0 0 0 0 0 0 0 0 0 0 0 0 0 0
72 50 36 36 36 14 6 15 0 0 0 0 0 0 0 0 0 0 0 0 0 0 0 0 0 0 0 0 0 0 0 0 0 0 0 0 0 0 0 0 0 0 0 0 0 0 0 0 0 0 0 0 0 0
66 67 61 49 45 15 7 5 0 0 0 0 0 0 0 0 0 0 0 0 0 0 0 0 0 0 0 0 0 0 0 0 0 0 0 0 0 0 0 0 0 0 0 0 0 0 0 0 0 0 0 0 0 0
86 83 41 59 47 28 17 7 1 0 0 0 0 0 0 0 0 0 0 0 0 0 0 0 0 0 0 5 0 0 0 0 0 0 0 2 0 0 0 0 0 0 0 0 0 0 0 0 0 0 0 0 0 0
59 79 75 51 52 28 24 14 0 0 0 0 9 0 0 0 0 0 0 0 0 0 0 0 0 0 0 0 0 0 9 2 0 0 28 4 1 0 0 0 0 0 0 0 0 0 0 0 0 0 0 0 0 0
77 63 40 71 54 37 28 2 0 0 0 0 0 0 0 0 0 0 0 0 0 0 0 0 1 0 0 0 0 0 0 0 0 0 0 0 0 0 0 0 0 0 0 0 0 0 0 0 0 0 0 0 0 0
6 5 75 50 54 29 0 0 0 0 0 0 0 0 0 0 0 0 0 0 0 0 0 0 0 0 0 0 0 0 0 0 0 0 0 0 0 0 0 0 0 0 0 0 0 0 0 0 3 6 3 0 0 0
5 55 36 56 0 0 0 0 0 0 0 0 0 0 0 0 0 0 0 0 0 0 0 0 0 0 0 0 0 0 0 0 0 0 0 0 0 0 0 0 0 0 0 0 2 6 2 0 0 0 0 0 0 0
42 27 46 4 0 0 0 0 0 0 0 0 0 0 0 0 0 0 0 0 0 0 0 0 0 0 0 0 0 0 0 0 0 0 0 0 0 0 0 0 2 3 6 11 13 6 7 2 2 1 0 0 0 0
57 43 9 0 0 0 11 0 0 0 0 0 0 0 0 0 0 0 0 0 0 0 0 0 0 0 0 0 0 0 0 0 0 0 0 0 0 0 0 1 1 2 1 2 0 0 2 3 3 1 1 1 1 2
9 19 0 0 0 0 0 0 0 0 0 0 0 0 0 0 0 0 0 0 0 0 0 0 0 0 0 0 0 0 0 0 0 0 3 1 0 1 1 0 0 0 0 1 1 2 1 1 2 2 2 3 3 1
0 0 0 0 0 0 1 0 0 0 0 0 0 0 0 0 0 0 0 0 0 0 0 0 0 0 0 0 0 0 0 0 0 0 0 0 0 0 0 0 0 0 1 1 1 1 0 1 0 0 0 1 0 0
0 0 0 0 0 0 0 0 0 0 0 0 0 0 0 0 0 0 0 0 0 0 0 0 0 0 0 0 0 0 0 0 1 1 0 0 0 0 0 0 0 0 1 0 0 0 0 0 0 0 0 0 0 0
0 0 0 0 0 0 0 0 0 0 0 0 0 0 0 0 0 0 0 0 0 0 0 0 0 0 0 0 0 0 0 1 0 0 0 0 0 0 0 0 0 0 0 0 0 0 0 0 0 0 0 0 0 0
0 0 0 0 0 0 0 0 0 0 0 0 0 0 0 0 0 0 0 0 0 0 0 0 0 0 0 0 0 0 0 0 0 0 0 0 0 0 0 0 0 0 0 0 0 0 0 0 0 0 0 0 0 0
0 0 0 0 0 0 0 0 0 0 0 0 0 0 0 0 0 0 0 0 0 0 0 0 0 0 0 0 0 0 0 0 0 0 0 0 0 0 0 0 0 0 0 0 0 0 1 2 4 9 10 5 1 0
0 0 0 0 0 0 0 0 0 0 0 0 1 0 0 2 0 0 0 0 0 0 1 0 0 0 0 0 0 0 0 0 1 2 1 1 0 0 0 0 0 0 0 0 0 1 15 15 21 30 18 3 0 0
0 0 0 0 0 0 9 2 0 0 0 0 0 1 2 0 0 0 0 0 1 3 5 0 0 0 0 0 0 0 0 0 0 0 0 0 0 0 0 0 0 0 0 0 0 10 1 0 0 0 0 0 0 0
0 0 0 0 0 0 0 0 6 6 0 0 0 0 0 0 0 0 0 0 0 0 0 0 0 0 0 0 0 0 0 0 0 0 0 0 0 0 0 0 0 0 0 0 0 0 0 0 0 0 0 0 0 0
0 0 0 8 4 3 2 0 0 16 1 1 1 2 5 0 0 0 0 0 0 0 0 0 0 0 0 0 0 0 0 0 0 0 0 0 0 0 0 0 0 0 0 0 0 0 0 0 0 0 0 0 0 0
1 2 5 6 4 0 14 15 9 3 1 0 2 1 0 0 0 0 0 0 0 0 0 0 0 0 0 0 0 0 0 0 0 0 0 0 0 0 0 0 0 0 0 0 0 0 0 0 0 1 1 0 0 0
4 3 11 16 7 3 9 0 2 2 1 0 0 0 0 0 1 0 0 0 0 0 0 0 0 0 0 0 0 0 0 0 0 0 0 0 0 0 0 0 0 0 0 0 0 0 0 0 0 0 0 0 0 0
0 2 4 3 0 0 0 0 0 0 0 0 0 0 0 0 0 0 0 0 0 0 0 0 0 0 0 0 0 0 0 0 0 0 0 0 0 0 0 0 0 0 0 0 0 0 0 0 0 0 0 0 0 0

GFSWCAN_con_sbcape_042.txt.gz
CAPE
8 5 5 0 0 0 0 7 0 0 0 0 0 0 0 0 0 0 0 0 0 0 0 0 0 0 0 0 0 0 38 87 106 87 59 76 44 47 73 92 169 194 173 238 317 265 341 893 1055 558 1639 1938 1639 1441
7 5 0 0 0 11 0 3 0 0 0 0 0 0 0 0 0 0 0 0 0 0 0 0 0 0 0 0 0 0 12 0 15 256 149 59 68 54 209 58 101 203 575 255 400 536 1474 1539 2140 2137 2290 2191 1823 1515
2 3 0 0 0 19 2 0 1 0 0 0 0 0 0 0 0 0 0 0 0 0 0 0 0 0 0 0 0 0 0 0 0 4 194 161 253 129 100 174 238 563 592 335 469 1047 1774 2086 2049 1907 1693 2370 1795 1254
2 2 1 0 0 16 13 1 1 0 0 0 0 0 0 0 0 0 0 0 0 0 0 0 0 0 0 0 0 0 0 0 0 0 86 150 106 35 90 90 161 333 620 1034 551 1302 1470 1918 1852 1627 1853 2229 2148 1449
1 2 1 0 0 11 10 12 1 0 0 0 0 0 0 0 0 0 0 0 0 0 0 0 0 0 0 0 0 0 0 0 0 0 12 83 1 76 49 97 83 275 520 308 650 1650 1763 2111 1710 1704 2033 2069 1811 1775
1 1 1 0 1 10 13 15 9 0 0 0 0 0 0 0 0 0 0 0 0 0 0 0 0 0 0 0 0 0 0 0 0 0 0 0 0 22 77 104 587 563 647 639 965 1343 1490 1542 1521 2131 1596 1373 1912 1872
1 2 8 1 1 19 28 25 16 0 0 0 0 0 0 0 0 0 0 0 0 0 0 0 0 0 0 0 0 0 0 0 0 0 0 0 0 1 72 64 449 468 485 885 1127 1193 1221 1162 1693 1876 1844 1476 1196 1347
1 12 26 15 19 35 32 24 16 0 0 0 0 0 0 0 0 0 0 0 0 0 0 0 4 20 2 4 17 0 0 0 0 0 0 0 0 0 2 44 122 188 296 874 927 573 433 1089 1569 1417 1403 1207 949 769
18 37 45 42 40 33 24 17 1 0 0 0 0 0 0 0 2 11 0 0 0 0 0 0 5 93 22 48 28 7 0 0 0 0 0 0 0 0 0 0 11 83 170 347 316 671 329 453 928 1004 801 545 260 209
34 47 60 66 43 27 27 12 0 0 0 0 0 0 0 7 0 0 0 0 0 0 0 0 0 163 224 185 129 128 76 13 3 1 0 0 0 0 0 0 30 13 0 81 208 511 347 383 382 319 154 63 1 0
44 35 55 69 21 34 24 0 0 0 0 0 0 8 0 0 1 0 0 0 0 0 0 0 0 22 153 334 240 235 195 156 26 43 1 5 1 107 34 45 49 45 44 53 165 187 156 159 131 83 37 16 7 11
10 12 38 38 20 32 13 3 0 0 0 0 0 0 0 1 2 4 0 0 0 0 0 0 0 0 92 442 494 372 215 196 83 184 28 12 388 192 128 13 0 0 0 0 7 15 23 29 27 31 27 16 3 0
29 52 56 57 59 21 13 0 0 0 0 0 0 4 5 2 1 0 0 0 1 0 4 42 2 0 198 696 438 370 171 164 252 171 107 376 250 259 223 99 23 0 0 0 0 0 0 1 0 5 7 8 4 0
39 50 58 60 58 29 11 0 0 0 0 10 12 1 3 0 0 0 0 11 18 25 157 328 147 182 370 408 279 122 235 219 174 153 218 404 513 320 156 11 12 3 0 0 0 0 0 0 0 0 1 1 4 0
52 52 48 71 61 32 6 0 0 0 2 14 7 1 0 1 0 0 0 0 0 10 280 374 389 325 280 206 235 199 161 125 162 231 389 614 572 246 1 0 0 0 0 0 0 0 0 0 1 9 12 4 6 4
48 47 51 48 28 29 5 0 0 0 0 4 5 13 9 8 10 8 10 37 0 170 297 312 200 186 187 233 142 127 106 168 374 514 522 447 189 21 4 10 7 3 6 9 11 10 8 12 11 27 21 20 20 20
64 39 47 43 30 26 0 0 0 0 3 4 22 26 27 23 46 91 130 157 152 313 377 274 121 115 226 179 130 240 329 548 556 673 633 291 92 39 13 8 19 13 12 5 1 2 9 18 31 52 64 56 35 2
46 82 30 11 8 1 0 0 0 0 0 6 41 28 6 7 62 171 216 204 231 294 332 230 260 225 168 152 190 414 568 536 447 256 78 18 14 38 28 6 8 16 38 21 39 72 66 83 71 65 72 19 17 29
72 57 18 2 0 1 9 0 0 10 10 13 10 1 0 7 142 132 36 26 36 73 196 215 166 141 187 270 302 436 442 409 326 101 2 0 25 45 4 93 3 25 44 45 104 91 51 33 40 39 36 31 35 30
11 8 0 0 2 21 11 14 1 33 56 63 47 91 151 210 174 74 45 17 17 72 131 120 102 316 271 284 406 367 306 91 26 7 14 27 34 71 57 26 102 49 42 41 46 5 58 32 16 17 11 11 11 35
19 3 0 0 14 27 56 48 14 22 56 125 156 187 187 242 170 104 99 11 84 68 102 104 165 216 247 220 181 147 89 7 5 4 2 21 55 19 5 8 73 56 21 9 56 9 9 16 22 32 62 30 33 31
5 0 0 0 11 44 36 47 79 96 139 130 199 120 152 186 95 46 0 0 8 28 2 8 14 32 24 28 11 4 6 5 5 2 8 10 4 8 24 18 48 26 8 30 58 22 8 7 26 45 0 15 18 30
0 0 28 27 38 12 106 71 132 106 116 99 87 85 79 61 9 0 2 1 5 0 0 0 0 0 3 11 12 9 11 12 9 43 35 26 44 48 53 7 4 3 3 49 60 43 21 0 0 1 0 7 40 43
0 29 54 39 28 26 35 81 52 40 59 58 57 49 29 8 0 0 1 0 0 0 0 4 5 17 28 24 26 54 55 41 32 9 11 2 3 3 18 103 79 53 46 46 47 39 30 11 1 18 25 26 22 24
1 0 0 0 0 37 49 32 0 1 13 17 9 6 5 0 2 0 0 0 6 8 15 29 47 31 4 58 25 4 6 19 62 4 3 1 0 1 9 31 29 21 27 33 37 34 33 34 41 47 47 42 27 18
0 2 2 34 49 34 13 5 0 2 1 0 3 8 4 11 1 2 5 28 20 26 63 79 13 11 74 3 8 8 20 57 47 27 33 26 20 25 25 37 36 44 45 53 35 32 33 34 48 44 41 24 1 18
1 27 26 9 26 12 11 7 1 1 0 1 9 15 7 12 6 16 27 19 40 47 74 81 85 17 6 7 2 73 70 63 54 41 58 52 46 49 58 37 43 46 45 51 42 47 61 50 46 34 25 39 20 12
26 38 19 15 25 16 15 12 11 9 12 20 21 22 9 3 12 43 28 65 17 2 84 20 8 10 19 30 75 85 87 71 93 91 85 83 86 76 93 91 97 0 20 35 45 53 62 65 51 33 20 31 26 29
30 36 21 9 6 6 7 7 12 22 25 27 18 12 11 11 12 39 31 40 54 70 18 25 32 30 49 70 80 96 103 98 71 75 81 67 78 71 85 30 6 13 20 27 0 0 48 42 39 39 28 35 37 46
2 0 13 10 3 8 16 5 6 11 41 9 11 15 23 43 21 6 9 11 16 21 35 58 64 104 99 94 83 85 88 70 37 35 15 27 36 19 7 6 10 17 17 21 32 28 0 8 10 25 18 40 53 58
1 9 5 6 6 21 9 2 1 20 20 11 5 10 28 13 2 2 4 1 42 66 95 88 79 103 107 92 100 90 76 65 54 53 23 11 6 5 13 20 28 33 34 37 45 48 47 46 51 43 54 67 44 9
5 3 3 5 12 25 27 28 22 27 27 20 10 5 8 26 22 40 41 40 46 74 82 51 119 120 90 79 99 110 4 62 51 66 69 36 21 16 10 15 26 31 34 33 43 55 61 43 43 53 42 27 13 4
11 13 15 10 13 6 3 4 5 13 21 28 34 36 38 43 44 27 25 28 50 57 78 95 79 50 68 78 68 24 3 6 0 0 0 0 0 0 13 36 37 42 43 47 44 27 11 8 14 9 4 3 1 0

GFSWCAN_con_sbcape_045.txt.gz
CAPE
14 15 21 7 0 0 0 0 0 0 0 0 0 0 0 0 0 0 0 0 0 0 0 0 0 0 0 0 5 11 52 166 165 72 27 28 51 103 114 301 678 309 463 317 420 449 532 447 762 779 1620 1592 954 1091
19 28 24 8 0 0 0 0 1 0 0 0 0 0 0 0 0 0 0 0 0 0 0 0 0 0 0 0 0 0 117 106 64 248 232 179 157 88 269 196 202 379 961 839 497 998 1173 1949 2780 2432 2417 1898 1592 1590
30 33 24 5 0 0 0 0 0 0 0 0 0 0 0 0 0 0 0 0 0 0 0 0 0 0 0 0 0 0 0 0 11 7 126 170 183 446 39 104 96 516 571 267 634 834 1719 1704 2100 2225 2431 2379 1721 1725
30 20 9 2 3 0 0 0 0 0 0 0 0 0 0 0 0 0 0 0 0 0 0 3 0 0 0 0 0 0 0 0 0 0 71 93 84 100 156 189 221 399 114 365 207 915 1112 1860 2139 2113 2381 2619 1767 1732
21 4 2 3 0 0 0 0 0 0 0 0 0 0 0 0 0 0 0 0 0 0 0 2 0 0 0 0 0 0 0 0 0 0 26 54 24 85 151 90 62 152 790 405 1329 1737 1510 2642 2322 2315 2261 2131 2013 2036
7 1 1 1 0 0 0 0 0 0 0 0 0 0 0 0 0 0 1 0 0 0 0 0 1 0 0 0 0 0 0 0 0 0 0 0 17 5 65 116 763 421 300 411 1287 1434 1883 2064 2153 2234 1962 2166 2095 2176
9 1 2 1 0 0 0 7 0 0 0 0 0 0 0 0 0 0 0 0 0 0 0 0 2 0 0 0 0 0 0 0 0 0 0 1 0 2 10 65 121 497 681 1260 1476 1501 1507 1693 2051 2327 1723 1649 1533 1716
16 1 2 1 2 0 0 12 9 1 0 0 0 0 0 0 0 0 0 0 0 0 0 0 10 2 0 5 9 0 0 0 0 0 0 3 1 0 2 282 455 250 723 995 666 559 714 1582 1823 1684 1722 1026 390 318
16 2 2 5 17 14 12 11 7 0 0 0 0 0 0 0 0 0 0 0 0 0 0 0 7 101 63 12 60 40 0 23 1 0 0 0 0 0 32 85 86 291 526 806 455 444 173 316 1090 1256 868 142 32 89
7 2 8 22 31 31 17 15 6 0 0 0 0 0 0 3 0 0 0 0 0 0 0 0 0 67 2 63 101 93 128 80 95 8 13 0 0 30 11 1 40 54 76 221 433 257 235 215 403 462 668 268 15 1
6 16 24 33 53 39 25 20 0 0 0 0 0 12 0 0 0 0 2 0 1 0 0 0 0 11 45 245 266 215 218 274 115 174 49 8 0 143 147 91 13 6 14 133 463 455 329 438 279 280 201 117 96 118
6 40 57 55 63 70 33 5 0 0 0 0 3 0 0 1 1 2 0 0 0 0 0 0 0 0 158 139 275 365 231 258 269 267 165 43 904 544 268 118 42 22 21 79 132 153 175 209 162 184 172 138 88 52
41 39 44 66 89 77 19 0 0 0 0 0 4 2 12 2 26 0 0 0 3 0 7 0 0 0 23 196 288 229 219 225 269 231 157 643 809 516 328 224 141 44 12 5 1 0 13 17 23 24 55 60 45 55
26 30 47 77 92 59 17 0 0 0 0 19 6 0 6 0 0 0 3 39 122 68 77 114 120 3 137 392 347 252 243 295 263 186 242 811 539 450 269 151 121 121 99 44 27 24 29 25 30 37 51 60 62 61
31 46 69 73 70 48 1 0 0 0 26 21 6 0 0 4 0 2 19 29 15 67 194 233 238 106 231 235 244 186 186 247 139 253 822 1187 790 521 380 134 114 191 130 85 71 56 45 41 58 72 84 78 60 28
34 54 35 76 65 22 0 0 0 11 16 9 12 16 4 0 7 4 6 32 77 145 343 296 149 132 195 129 137 158 120 148 483 838 905 883 591 401 305 202 169 136 166 119 104 96 100 99 105 67 34 34 18 12
44 43 57 50 22 0 0 4 25 9 36 10 16 25 25 64 47 80 80 143 172 336 399 247 149 155 212 242 138 206 293 647 818 870 1029 692 488 403 307 230 240 136 122 30 9 14 57 100 99 143 144 97 46 39
42 54 29 4 0 0 0 10 44 34 8 15 26 32 38 34 57 95 99 159 250 353 465 347 407 284 227 203 230 489 665 767 570 564 423 442 405 371 242 254 85 188 111 122 267 196 239 202 117 72 65 49 51 42
44 49 0 0 0 0 14 13 19 17 11 28 60 54 43 63 165 186 173 212 265 355 371 194 254 219 309 383 482 651 736 779 699 558 326 411 308 232 132 74 297 229 50 72 213 206 165 155 67 60 53 33 49 24
1 0 3 3 0 0 0 6 1 42 46 51 67 64 61 164 323 251 172 197 249 295 216 198 218 506 456 438 490 536 425 351 301 142 68 150 160 124 123 270 161 310 125 49 144 11 111 33 26 33 14 7 13 29
7 0 0 0 49 49 40 16 40 40 58 71 78 84 122 417 394 194 139 180 251 146 126 106 226 402 610 588 362 353 345 187 133 22 16 8 37 68 61 28 12 182 44 4 77 5 43 112 122 84 28 53 44 19
2 0 20 2 62 99 80 90 111 114 120 173 171 152 314 419 357 161 104 105 132 99 183 187 196 337 323 331 226 147 72 44 13 6 6 10 55 35 42 5 61 41 17 78 97 85 64 65 54 0 1 52 10 47
0 6 106 86 58 42 102 188 180 185 162 225 161 159 166 143 113 28 82 102 141 231 124 106 157 56 11 10 26 18 18 25 26 19 54 60 43 37 47 11 2 2 14 101 121 57 2 0 9 10 45 48 67 40
0 86 62 47 57 65 93 144 143 94 143 116 121 74 84 92 13 16 35 35 24 2 0 1 2 11 32 25 38 63 74 71 75 68 51 21 47 6 75 120 99 144 100 34 20 3 15 27 8 45 38 39 29 23
37 14 27 0 45 48 34 44 56 49 58 53 39 32 59 0 13 3 2 0 10 19 17 20 29 44 60 55 74 12 10 25 44 2 5 36 0 14 106 146 83 44 38 45 49 53 59 46 49 38 51 25 19 21
0 19 12 45 40 31 54 21 6 5 10 8 9 15 1 12 1 0 12 28 30 19 26 117 173 59 67 59 4 18 46 4 13 31 16 22 2 18 16 18 41 44 54 27 41 40 40 51 20 26 33 16 0 17
5 29 81 60 60 47 33 27 15 10 2 5 12 14 5 4 10 19 45 55 85 145 143 131 111 72 45 24 5 2 47 109 67 24 25 19 34 36 38 38 84 53 58 42 51 48 32 43 36 39 37 52 38 35
23 47 14 31 31 22 15 13 6 7 7 13 9 14 14 18 36 48 81 103 85 51 86 60 43 9 18 17 81 108 95 119 71 60 71 65 59 60 59 65 36 0 13 33 34 45 45 52 50 24 42 54 37 48
27 21 15 19 20 15 23 24 8 12 14 16 27 20 40 47 44 45 51 69 36 80 52 28 37 37 72 72 94 51 43 55 54 47 71 41 60 44 84 73 8 14 38 26 0 0 0 20 27 14 49 56 63 60
38 31 7 8 10 3 18 17 56 47 42 0 1 1 6 42 45 21 10 50 85 18 60 47 47 58 59 60 72 73 79 73 80 49 32 82 55 61 70 31 40 38 41 44 48 15 0 1 9 7 13 55 57 93
29 20 11 13 6 8 47 42 25 17 7 11 6 4 11 32 26 43 34 16 38 42 49 75 42 50 42 74 38 10 18 67 31 20 37 46 35 28 43 53 56 59 58 60 59 69 77 55 62 73 57 63 72 34
4 2 3 3 4 10 33 32 29 30 31 29 14 5 6 33 32 67 70 107 69 97 65 6 31 35 68 57 62 84 3 51 28 56 46 34 41 55 61 61 54 54 60 51 73 69 67 86 62 73 78 65 41 31
4 7 8 27 17 8 5 19 39 34 36 51 39 32 26 34 42 58 74 111 126 89 70 98 92 70 97 109 97 50 11 32 0 0 0 0 0 0 28 61 81 68 71 67 68 65 52 37 32 31 17 21 19 13

GFSWCAN_con_sbcape_048.txt.gz
CAPE
7 12 9 7 15 8 0 0 0 0 0 0 0 0 0 0 0 0 0 0 0 0 0 0 0 0 0 0 0 0 43 13 21 69 11 15 28 66 112 297 560 511 662 458 701 582 485 1552 173 191 128 27 622 961
7 9 6 8 14 11 0 0 0 0 0 0 0 0 0 0 0 0 0 0 0 0 0 0 0 0 0 0 0 0 1 121 62 247 268 311 111 347 525 344 426 386 1056 154 918 892 673 1453 1974 2606 2276 2476 2034 1784
6 6 7 15 10 3 0 0 0 0 0 0 0 0 0 0 0 0 0 0 0 0 0 0 0 0 0 0 0 0 1 0 14 0 78 84 564 248 276 95 308 603 129 23 441 1475 1052 827 2117 2013 2176 1841 1344 1407
5 6 10 17 10 1 0 0 0 0 0 0 0 0 0 0 0 0 0 0 0 0 0 1 0 0 0 0 0 0 0 0 0 0 4 54 109 89 70 17 7 103 221 711 1294 1444 979 1965 1791 2220 2177 2191 1143 1174
4 8 15 10 7 0 0 0 0 0 0 0 0 0 0 0 0 0 0 0 0 0 0 0 0 0 0 0 0 0 0 0 0 0 0 5 57 2 0 70 41 181 353 548 1129 1548 1823 2298 2364 1900 1861 1577 1428 1544
3 9 15 7 1 0 0 0 0 0 0 0 0 0 0 0 0 0 0 0 0 0 0 0 0 0 0 0 0 0 0 0 0 0 29 9 56 0 0 18 38 116 95 4 215 1561 2094 2017 1950 1699 1731 1724 1712 1779
5 19 12 17 2 0 0 0 0 0 0 0 0 0 0 0 0 0 0 0 0 0 0 0 0 0 0 0 0 0 0 0 0 0 0 6 0 0 0 10 290 209 0 101 115 1108 1251 1298 1942 1636 1290 1217 859 749
7 16 4 4 2 0 0 0 0 0 0 0 0 0 0 0 0 0 0 0 0 0 0 0 13 6 0 0 0 0 0 0 0 0 0 5 0 0 0 0 16 0 3 216 155 248 886 1772 884 831 443 229 130 116
14 14 1 2 2 0 0 0 0 0 0 0 0 0 0 0 0 1 0 0 0 0 0 0 1 75 9 0 29 41 21 5 7 0 0 0 12 0 1 23 0 251 426 342 317 486 298 713 1044 105 0 72 205 38
15 11 2 3 6 5 0 0 0 0 0 0 0 0 0 0 0 0 0 0 0 0 0 0 0 25 110 23 8 20 25 31 4 13 20 1 3 0 0 0 71 40 40 119 577 871 360 425 532 1 141 129 3 64
10 19 10 4 9 16 19 6 0 0 0 0 0 17 1 0 0 0 4 0 0 0 0 0 0 1 66 41 243 90 95 124 195 80 33 31 29 7 297 372 103 54 34 67 265 592 463 744 494 305 113 220 80 101
30 7 8 7 13 24 27 6 0 0 0 0 0 0 0 0 2 0 0 0 1 0 0 0 0 0 140 75 240 243 45 90 99 28 404 308 1206 597 343 159 84 71 97 169 182 202 191 213 135 250 204 218 192 162
4 4 9 15 30 34 28 0 0 0 0 0 0 1 2 0 0 0 0 0 0 0 1 0 0 0 2 1 21 277 330 119 303 264 336 616 1043 745 431 209 68 9 19 34 24 15 16 14 27 38 106 99 93 108
18 6 6 27 45 46 29 2 0 0 0 4 11 0 0 0 0 0 0 11 41 19 7 8 32 0 5 50 39 42 107 226 223 0 2 617 877 634 491 323 236 223 121 43 31 23 21 32 32 23 56 77 100 101
23 16 19 19 30 69 38 0 0 0 0 17 5 0 0 4 0 1 75 104 56 61 109 52 142 30 70 59 203 207 215 151 203 327 535 842 1181 647 514 434 303 452 318 286 218 65 85 84 76 86 119 77 61 47
34 27 26 50 81 64 1 0 0 0 6 18 7 3 2 1 12 15 7 35 18 48 43 95 92 52 129 141 49 123 45 158 365 560 556 800 573 534 444 470 400 494 285 193 146 127 111 103 100 59 70 130 30 5
36 45 63 64 57 16 1 0 1 8 14 5 1 5 9 19 26 39 67 111 92 192 144 125 105 135 74 83 140 184 245 577 394 364 258 222 617 552 377 393 336 221 198 219 78 105 117 220 158 161 169 127 80 56
45 85 64 41 7 0 6 1 24 9 3 0 28 8 25 59 46 73 81 178 155 174 206 185 349 269 162 84 273 2 7 831 946 547 1016 1015 570 471 359 252 194 177 227 138 310 212 329 233 95 68 110 82 132 31
36 57 13 9 13 30 42 31 37 12 0 0 27 40 26 22 65 53 81 121 132 284 311 281 129 199 291 407 383 810 682 688 629 669 548 715 455 286 203 181 214 396 300 177 138 320 542 201 73 56 25 58 45 20
5 0 0 0 0 29 10 16 1 54 25 25 45 44 42 41 71 66 94 136 100 158 121 133 153 418 150 0 257 409 394 278 85 70 617 241 455 134 308 192 186 366 448 204 251 3 250 53 172 55 20 4 33 12
7 1 0 0 22 34 65 0 12 29 89 53 48 80 59 65 102 271 162 114 107 57 158 100 258 24 584 455 312 274 524 290 172 83 46 7 3 6 36 121 162 234 156 95 226 33 116 105 117 66 46 43 40 45
2 0 0 0 22 62 74 59 78 78 51 74 65 87 160 251 296 259 169 115 115 139 233 366 472 432 481 627 542 407 218 100 32 1 4 6 18 35 117 24 70 36 72 180 242 124 85 70 23 3 27 21 7 47
0 0 30 23 44 41 31 68 69 81 71 77 122 70 223 254 267 292 110 75 95 406 348 470 544 394 192 59 18 78 64 55 23 30 110 59 53 46 80 38 6 40 68 64 308 64 1 0 1 0 35 44 39 38
0 88 56 36 61 53 82 107 176 136 194 165 154 81 65 133 88 77 92 55 110 171 47 182 7 0 93 284 65 291 147 117 163 144 80 39 31 12 22 30 70 140 79 39 0 0 9 34 5 33 55 40 36 31
39 1 4 0 60 41 28 60 77 43 74 126 77 75 57 36 62 192 217 75 33 72 82 94 17 22 49 196 86 35 18 21 57 36 1 3 23 14 44 135 122 104 74 35 27 23 33 54 43 30 32 30 5 23
1 11 0 46 65 40 42 34 16 30 15 32 32 51 6 43 33 0 41 146 67 11 8 216 333 370 168 58 68 20 65 5 14 6 18 22 28 64 47 25 35 60 74 57 36 40 52 40 17 32 29 21 0 10
1 69 83 70 51 72 41 42 39 28 19 18 38 41 22 7 1 31 104 161 282 195 201 131 121 268 93 75 43 6 47 44 133 28 37 39 58 30 37 31 53 49 74 25 23 19 23 25 28 29 35 45 46 34
10 52 36 29 22 32 19 26 20 15 12 19 14 20 21 18 29 204 110 36 34 32 55 44 33 28 56 16 15 31 51 65 97 86 10 40 69 36 47 60 68 0 12 16 35 44 30 31 41 47 25 29 37 39
19 18 23 15 22 12 20 17 20 23 26 32 30 26 65 60 36 35 25 35 37 92 73 52 6 4 10 22 44 29 78 91 50 57 52 42 54 28 35 42 1 0 1 0 0 0 0 5 27 12 11 27 56 62
23 8 14 25 14 8 21 22 8 56 49 15 20 21 14 14 24 37 43 35 65 58 32 20 22 1 37 68 64 72 60 74 89 65 96 61 67 66 71 76 68 51 54 54 43 17 0 1 3 11 16 49 46 92
32 15 11 13 12 14 66 78 57 49 20 28 1 8 7 17 22 11 48 58 40 57 27 29 52 78 65 59 35 33 26 48 57 39 54 20 27 55 81 64 59 67 63 59 64 62 57 45 60 57 56 43 95 45
1 0 2 2 16 21 40 25 17 21 27 28 25 12 16 22 31 8 4 2 24 49 12 7 92 61 43 40 40 52 20 19 72 89 65 80 56 94 68 54 63 86 80 90 71 87 86 100 101 74 92 73 55 52
9 6 2 19 13 2 1 19 28 25 15 46 41 13 15 32 22 17 25 24 62 79 65 22 5 12 73 59 79 55 15 3 0 0 0 0 0 0 10 38 56 84 46 63 64 79 49 28 44 32 20 15 13 14